Flag for Germany Weather past 2 weeks in Garbsen, Lower Saxony, Germany

Now
63 °F

Partly cloudy.


Feels Like: 63 °F
Forecast: 60 / 68 °F
Wind: 8 mph from Southwest

Location: Hannover

Current Time: Aug 29, 2014 at 8:07:48 AM

Latest Report: Aug 29, 2014 at 7:20 AM


Visibility: 5 mi

Pressure: 29.92 "Hg

Humidity: 94%

Dew point: 61 °F

Location of GarbsenLocation

Historic Weather in Garbsen — Graph

°F

Garbsen temperature yesterday

Maximum temperature yesterday: 73 °F (at 2:50 PM)
Minimum temperature yesterday: 43 °F (at 5:50 AM)
Average temperature yesterday: 62 °F

Past Weeks' High & Low Weather Summary

 TemperatureHumidityPressure
High73 °F (Aug 28, 2:50 PM)100% (Aug 25, 12:20 AM)30.07 "Hg (Aug 25, 12:20 AM)
Low43 °F (Aug 25, 5:20 AM)43% (Aug 28, 12:50 PM)29.59 "Hg (Aug 18, 5:20 AM)
Average57 °F78%29.88 "Hg
* Reported Aug 14 6:20 AM — Aug 29 6:50 AM, Garbsen, Weather by CustomWeather, © 2014

Note: Actual official high and low records may vary slightly from our data, if they occured in-between our weather recording intervals... More about our weather records

Advertising

Garbsen weather history for previous 24 hours

 ConditionsComfort  
Time TempWeatherWind HumidityBarometerVisibility
6:50 AM
Aug 29
61 °FLight rain. Passing clouds.6 mph100%29.92 "HgN/A
6:20 AM63 °FLight rain. Partly cloudy.6 mph88%29.92 "HgN/A
5:50 AM63 °FLight rain. Partly cloudy.5 mph88%29.92 "HgN/A
5:20 AM63 °FLight rain. Partly cloudy.5 mph88%29.92 "HgN/A
4:50 AM63 °FClear.5 mph83%29.92 "Hg10 mi
4:20 AM63 °FClear.5 mph83%29.92 "Hg10 mi
3:50 AM64 °FClear.6 mph78%29.92 "Hg10 mi
3:20 AM64 °FClear.6 mph78%29.92 "Hg10 mi
2:50 AM64 °FClear.6 mph78%29.95 "Hg10 mi
2:20 AM64 °FClear.6 mph78%29.95 "Hg10 mi
1:50 AM64 °FClear.5 mph78%29.95 "Hg10 mi
1:20 AM66 °FClear.7 mph73%29.95 "Hg10 mi
12:50 AM66 °FClear.6 mph73%29.95 "Hg10 mi
12:20 AM66 °FClear.7 mph73%29.95 "Hg10 mi
11:50 PM
Aug 28
66 °FClear.5 mph73%29.95 "Hg10 mi
11:20 PM66 °FClear.6 mph68%29.95 "Hg10 mi
10:50 PM66 °FPassing clouds.7 mph73%29.95 "HgN/A
10:20 PM68 °FClear.6 mph64%29.95 "Hg10 mi
9:50 PM68 °FClear.8 mph64%29.95 "Hg10 mi
9:20 PM70 °FClear.7 mph60%29.98 "Hg10 mi
8:50 PM70 °FSunny.7 mph60%29.95 "Hg10 mi
8:20 PM70 °FSunny.6 mph60%29.95 "Hg10 mi
7:50 PM70 °FSunny.6 mph60%29.95 "Hg10 mi
7:20 PM72 °FSunny.6 mph57%29.95 "Hg10 mi
6:50 PM72 °FSunny.7 mph57%29.95 "Hg10 mi
6:20 PM73 °FSunny.10 mph53%29.98 "Hg10 mi
5:50 PM73 °FSunny.10 mph50%29.98 "Hg10 mi
5:20 PM73 °FPassing clouds.10 mph50%29.98 "HgN/A
4:50 PM73 °FPassing clouds.9 mph50%29.98 "HgN/A
4:20 PM73 °FPassing clouds.9 mph50%29.98 "HgN/A
3:50 PM73 °FSunny.9 mph47%29.98 "Hg10 mi
3:20 PM73 °FPassing clouds.10 mph50%30.01 "HgN/A
2:50 PM73 °FPassing clouds.10 mph47%30.01 "HgN/A
2:20 PM72 °FPassing clouds.8 mph50%30.01 "HgN/A
1:50 PM72 °FPassing clouds.9 mph47%30.01 "HgN/A
1:20 PM72 °FPassing clouds.9 mph47%30.04 "HgN/A
12:50 PM70 °FPassing clouds.9 mph43%30.04 "HgN/A
12:20 PM70 °FPassing clouds.10 mph46%30.04 "HgN/A
11:50 AM70 °FPassing clouds.12 mph46%30.04 "HgN/A
11:20 AM68 °FPassing clouds.9 mph49%30.04 "HgN/A
10:50 AM66 °FSunny.9 mph56%30.04 "Hg10 mi
10:20 AM66 °FSunny.8 mph56%30.04 "Hg10 mi
9:50 AM64 °FPassing clouds.6 mph64%30.07 "HgN/A
9:20 AM63 °FPassing clouds.6 mph73%30.07 "HgN/A
8:50 AM59 °FSunny.6 mph77%30.04 "Hg10 mi
8:20 AM55 °FSunny.6 mph88%30.04 "Hg10 mi
Weather by CustomWeather, © 2014

See weather overviewHow to use our weather pages